GSAT0226 (GALILEO 31)

Last updated on Wed Aug 19 2026 00:02:49 GMT+0000 (Coordinated Universal Time)

1 61183U 24167B 26230.38320223 .00000051 00000+0 00000+0 0 9999 2 61183 55.1709 219.6141 0002990 244.4974 186.7022 1.70473919 11915
UTC large
Height (km)
Speed (km/s)
/
Latitude / Longitude
Inclination (degrees)
Orbital Period (minutes)
Azimuth
Elevation
Range (km)
Doppler Factor

Next 0 passes for location: London (51.5072 / 0.1276)

No passes found over London.
GSAT0226 (GALILEO 31)